COSMOS 1092

Satellite information

Favourite Embed

Satellite Type and Status

PAYLOADIN ORBIT

Key statistics

Satellite COSMOS 1092 at a glance.

Uptime

16953

Days in orbit

Revolutions

≈ 13.8

Per day

Orbit

LEO

Low Earth Orbit

Inclination

82.9

Latest

Satellite identification and parameters

Extended collection of information and parameters for COSMOS 1092.

Object identification

Identified? True

Debris? False

Object name: COSMOS 1092

International designator: 1979-030A

Object number (NORAD): 11326

Object ID (CCSDS): 11326

Country: COMMONWEALTH OF INDEPENDENT STATES (CIS)

Current information (Y/N): Y

RCS size: LARGE

Orbital parameters

Period: 104.68 minutes

Inclination: 82.944 deg

SMA: 7357.594 km

Apoapsis: 1001.218 km

Periapsis: 957.7 km

RAAN: 254.4389 deg

Eccentricy: 0.00295732

Argument of periapsis: 164.4165 deg

Mean anomaly: 311.9437 deg

Mean motion: 13.75621719 rev/day

Mean motion (dot): 0.00000067 rev/day2

B* drag term: 0.000053143242 1/REarth

Two-line elements (TLE)

Creation date: Sept. 8, 2025, 6:18 p.m.

Reference frame: TEME

Reference center: EARTH

Epoch: Sept. 8, 2025, 12:19 p.m. UTC

TLE line 0: 0 COSMOS 1092

TLE line 1: 1 11326U 79030A 25251.51347152 .00000067 00000-0 53143-4 0 9998

TLE line 2: 2 11326 82.9440 254.4389 0029573 164.4165 311.9437 13.75621719563666

Live tracking on map

Real-time ground track for satellite COSMOS 1092.

In-orbit conjunctions

A list of the most updated potential collisions computed for object COSMOS 1092.

Target Orbit TCA Probability of collision Miss distance Type
NADEZHDA 1 LEO 2025-02-01 01:28:22 0.0003604837 148.0 (m) PAYLOAD

Associated space launch

Civilian navigation satellite equivalent to the purely military Parus

COSMOS 1092 was lifted into orbit during the mission ‘Kosmos-3M | Tsikada 5’, on board a Kosmos-3M space rocket.

The launch took place on April 11, 1979, 9:51 p.m. from 132/1 (132L).

For more information about the launch, click the button.

Launch to space Kosmos-3M | Tsikada 5
Kosmos-3M | Tsikada 5

Agency: N/A

Status: Launch Successful

Launch date: April 11, 1979, 9:51 p.m. UTC

Rocket: Kosmos-3M

Launch pad: 132/1 (132L)

Location: Plesetsk Cosmodrome, Russian Federation

...

Latest news about this satellite

There are no fresh news available about this satellite. Check back as we update our databases every day.


Newsletter sign-up

Weekly statistics, charts and insights to help you stay on top of the space industry.